[[{"header":{"parameterUnit":"m.s-1","parameterCategory":1,"la1":30.2991,"la2":30.254,"lo1":-89.0895,"lo2":-89.0444,"dy":0.0017,"dx":0.0017,"nx":28,"ny":28,"refTime":"2024-12-09T09:00:00:Z","depth":0,"parameterNumber":2,"parameterNumberName":"U-component_of_WINDS"},"data":[0,0,0,0,0,0,0,0,0,0,0,0,0,0,0,0,0,0,0,0,0,0,0,0,0,0,0,0,0,0,0,0,0,0,0,0,0,0,0,0,0,0,0,0,0,0,0,0,0,0,0,0,0,0,0,0,0,0,-2.3849,-2.385,0,-2.3918,-2.3919,-2.392,-2.3933,-2.3933,-2.3932,-2.3932,-2.4,-2.4003,-2.4005,0,0,0,0,0,0,0,0,0,0,0,0,0,-2.3727,-2.373,-2.3849,-2.385,-2.3851,-2.3918,-2.3919,-2.392,-2.3933,-2.3933,-2.3932,-2.3932,-2.4,-2.4002,-2.4005,0,0,0,0,0,0,0,0,0,0,0,0,0,-2.3787,-2.373,-2.3849,-2.3866,-2.3868,-2.3918,-2.3919,-2.392,-2.3934,-2.3933,-2.3932,-2.3931,-2.3999,-2.4002,-2.4006,-2.4043,0,0,-2.4016,-2.4018,0,0,0,0,0,0,0,0,-2.3783,-2.3791,-2.3862,-2.3865,-2.3867,-2.3916,-2.3901,-2.3961,-2.3934,-2.3909,-2.3932,-2.3931,-2.3973,-2.3979,-2.3993,-2.4046,-2.4049,-2.4017,-2.4019,-2.402,-2.4021,0,0,0,0,0,0,0,-2.3779,-2.3788,-2.3876,-2.3863,-2.3866,-2.3869,-2.3877,-2.3913,-2.3944,-2.3911,-2.3912,-2.392,-2.3974,-2.399,-2.3995,-2.405,-2.4016,-2.402,-2.4022,-2.4023,-2.4136,-2.4137,0,0,0,0,0,0,-2.3772,-2.3785,-2.3874,-2.3878,-2.3822,-2.3872,-2.3881,-2.3901,-2.3944,-2.395,-2.3921,-2.392,-2.3984,-2.3991,-2.3997,-2.4043,-2.402,-2.4023,-2.4025,-2.4136,-2.4137,-2.4138,0,0,0,0,0,0,-2.377,-2.378,-2.3871,-2.3832,-2.3844,-2.3875,-2.3898,-2.3903,-2.3919,-2.3951,-2.3957,-2.3931,-2.3984,-2.3992,-2.4031,-2.4046,-2.4025,-2.4028,-2.4134,-2.4136,-2.4137,-2.4135,0,0,0,0,0,0,-2.3766,-2.3779,-2.3794,-2.3832,-2.3846,-2.3905,-2.3899,-2.3905,-2.3925,-2.3925,-2.3962,-2.3968,-2.3984,-2.4026,-2.4035,-2.405,-2.4031,-2.4133,-2.4135,-2.4137,-2.4134,-2.4136,-2.4138,0,0,0,0,0,-2.3762,-2.379,-2.3795,-2.3805,-2.3865,-2.3905,-2.3913,-2.3932,-2.3926,-2.3941,-2.3962,-2.3967,-2.4043,-2.403,-2.404,-2.4056,-2.4132,-2.4135,-2.4137,-2.4133,-2.4136,-2.4138,0,0,0,0,0,0,-2.3752,-2.3796,-2.3801,-2.3843,-2.387,-2.3908,-2.3927,-2.3934,-2.3963,-2.3962,-2.3983,-2.3992,-2.4029,-2.4047,-2.4032,-2.4094,-2.4087,-2.4091,-2.4081,-2.4084,-2.4086,-2.408,-2.4034,0,0,0,0,0,-2.3755,-2.3785,-2.3821,-2.3854,-2.3868,-2.3895,-2.3914,-2.3925,-2.3955,-2.3966,-2.399,-2.4018,-2.4048,-2.4067,-2.4097,-2.4137,-2.4145,-2.4153,-2.4155,-2.4157,-2.416,-2.4181,-2.4185,-2.4144,-2.4144,-2.4144,0,0,-2.3761,-2.3789,-2.3806,-2.3853,-2.3876,-2.3906,-2.3905,-2.3936,-2.3958,-2.3971,-2.4009,-2.4028,-2.406,-2.4099,-2.4118,-2.4115,-2.4173,-2.4159,-2.416,-2.4162,-2.4184,-2.4188,-2.4191,-2.4146,-2.4146,-2.4145,0,0,-2.3787,-2.3811,-2.3841,-2.3864,-2.3899,-2.3917,-2.3924,-2.3961,-2.3974,-2.4013,-2.4023,-2.4049,-2.4101,-2.4123,-2.4141,-2.4176,-2.4181,-2.4185,-2.4195,-2.4216,-2.4219,-2.4222,-2.4233,-2.4237,-2.4188,-2.4188,-2.4188,0,-2.379,-2.3835,-2.3856,-2.3887,-2.3907,-2.3921,-2.3951,-2.3972,-2.4014,-2.4028,-2.4025,-2.409,-2.4113,-2.4157,-2.4166,-2.418,-2.4188,-2.418,-2.4217,-2.4221,-2.4224,-2.4234,-2.4239,-2.4188,-2.4188,-2.4188,-2.4188,0,-2.3836,-2.3868,-2.3888,-2.3929,-2.3952,-2.3982,-2.4007,-2.4027,-2.4037,-2.4055,-2.4094,-2.4123,-2.4158,-2.417,-2.418,-2.4216,-2.4213,-2.4213,-2.4206,-2.4227,-2.4238,-2.4242,-2.4189,-2.4189,-2.4189,-2.4188,0,0,-2.3856,-2.3909,-2.3916,-2.3935,-2.3974,-2.3999,-2.403,-2.4065,-2.4082,-2.4111,-2.4136,-2.418,-2.4181,-2.4202,-2.4215,-2.4233,-2.4258,-2.4232,-2.4233,-2.4234,-2.4298,-2.4296,-2.43,-2.4262,-2.4263,-2.4264,-2.4295,0,-2.3886,-2.3942,-2.3961,-2.4007,-2.4036,-2.405,-2.4077,-2.4104,-2.4122,-2.4149,-2.4168,-2.4199,-2.4198,-2.421,-2.423,-2.4251,-2.427,-2.4249,-2.4285,-2.4286,-2.4275,-2.4306,-2.4305,-2.4332,-2.4299,-2.43,-2.43,0,-2.3927,-2.3957,-2.4006,-2.4042,-2.4055,-2.4079,-2.4112,-2.4138,-2.4169,-2.4181,-2.4204,-2.4216,-2.4248,-2.4241,-2.4285,-2.427,-2.4286,-2.4299,-2.43,-2.4303,-2.4293,-2.4308,-2.4342,-2.4345,-2.4307,-2.4307,-2.4306,0,-2.3935,-2.3988,-2.4024,-2.404,-2.4083,-2.4099,-2.4118,-2.4148,-2.4168,-2.4197,-2.421,-2.4243,-2.4261,-2.4285,-2.4305,-2.4298,-2.4347,-2.4342,-2.4357,-2.4356,-2.4365,-2.4364,-2.44,-2.4378,-2.4378,-2.4378,-2.4378,0,-2.3965,-2.3994,-2.4028,-2.405,-2.4083,-2.4105,-2.4137,-2.4157,-2.4183,-2.4209,-2.4223,-2.4247,-2.4273,-2.4299,-2.4315,-2.4349,-2.4357,-2.4367,-2.437,-2.4364,-2.4363,-2.4374,-2.4372,-2.4379,-2.4379,-2.4379,-2.4379,0,-2.3979,-2.4003,-2.4043,-2.4081,-2.4091,-2.4113,-2.4146,-2.4167,-2.4186,-2.4218,-2.4227,-2.4257,-2.4289,-2.4312,-2.4353,-2.4364,-2.44,-2.4404,-2.4389,-2.4391,-2.4404,-2.4402,-2.4447,-2.4454,-2.4429,-2.4429,-2.4429,0,-2.3995,-2.4018,-2.4059,-2.4077,-2.4096,-2.4125,-2.4146,-2.4169,-2.4189,-2.4226,-2.4243,-2.4277,-2.4305,-2.4355,-2.438,-2.4412,-2.4416,-2.443,-2.4421,-2.4414,-2.4414,-2.4412,-2.4414,-2.443,-2.443,-2.443,-2.4431,0,-2.4022,-2.4033,-2.4062,-2.4095,-2.4119,-2.4147,-2.4174,-2.4188,-2.4216,-2.4239,-2.4272,-2.4294,-2.4336,-2.4369,-2.4403,-2.4422,-2.443,-2.4434,-2.4439,-2.4432,-2.4422,-2.4426,-2.4391,-2.4432,-2.4432,-2.4432,-2.4432,-2.4432,-2.4036,-2.4057,-2.4089,-2.4121,-2.4144,-2.4169,-2.4191,-2.4214,-2.4242,-2.4279,-2.4291,-2.4325,-2.4356,-2.4402,-2.4422,-2.4449,-2.4448,-2.4455,-2.4457,-2.4458,-2.4457,-2.4419,-2.4455,-2.4455,-2.4455,-2.4455,-2.4455,0,-2.4062,-2.4084,-2.4113,-2.4151,-2.4176,-2.4184,-2.4214,-2.4235,-2.4265,-2.4293,-2.432,-2.4358,-2.439,-2.4418,-2.4451,-2.4467,-2.4472,-2.4475,-2.4473,-2.4477,-2.4456,-2.4448,-2.447,-2.447,-2.447,-2.447,-2.447,-2.447,-2.4079,-2.4114,-2.4128,-2.4175,-2.4196,-2.423,-2.4247,-2.4271,-2.4293,-2.4335,-2.4362,-2.438,-2.4408,-2.4443,-2.4472,-2.448,-2.449,-2.4492,-2.45,-2.448,-2.4478,-2.4476,-2.4469,-2.4495,-2.4495,-2.4518,-2.4518,-2.4518]},{"header":{"parameterUnit":"m.s-1","parameterCategory":1,"la1":30.2991,"la2":30.254,"lo1":-89.0895,"lo2":-89.0444,"dy":0.0017,"dx":0.0017,"nx":28,"ny":28,"refTime":"2024-12-09T09:00:00:Z","depth":0,"parameterNumber":3,"parameterNumberName":"V-component_of_WINDS"},"data":[0,0,0,0,0,0,0,0,0,0,0,0,0,0,0,0,0,0,0,0,0,0,0,0,0,0,0,0,0,0,0,0,0,0,0,0,0,0,0,0,0,0,0,0,0,0,0,0,0,0,0,0,0,0,0,0,0,0,3.4178,3.4179,0,3.4303,3.4305,3.4306,3.4301,3.4299,3.4297,3.4295,3.4424,3.4429,3.4434,0,0,0,0,0,0,0,0,0,0,0,0,0,3.3937,3.3941,3.4178,3.4179,3.4181,3.4303,3.4305,3.4307,3.4301,3.4299,3.4297,3.4295,3.4423,3.4429,3.4435,0,0,0,0,0,0,0,0,0,0,0,0,0,3.405,3.3942,3.4178,3.4193,3.4196,3.4303,3.4305,3.4307,3.4301,3.4299,3.4296,3.4294,3.4421,3.4428,3.4436,3.4536,0,0,3.4459,3.4462,0,0,0,0,0,0,0,0,3.4043,3.4058,3.4189,3.4192,3.4195,3.4284,3.4267,3.4384,3.4302,3.4261,3.4295,3.4292,3.438,3.439,3.442,3.4542,3.4547,3.4459,3.4464,3.4467,3.447,0,0,0,0,0,0,0,3.4035,3.4053,3.4228,3.4191,3.4195,3.4195,3.4208,3.4289,3.4334,3.4265,3.4265,3.4279,3.4381,3.4413,3.4423,3.4549,3.4459,3.4466,3.4471,3.4474,3.4765,3.4768,0,0,0,0,0,0,3.4024,3.4047,3.4224,3.4231,3.4111,3.4201,3.4216,3.4258,3.4333,3.4342,3.4282,3.4279,3.4401,3.4414,3.4427,3.4553,3.4467,3.4474,3.4479,3.4762,3.4765,3.4769,0,0,0,0,0,0,3.4019,3.404,3.4219,3.4139,3.4162,3.4208,3.4256,3.4262,3.4294,3.4346,3.4354,3.4306,3.4399,3.4417,3.451,3.4557,3.4478,3.4485,3.4758,3.4763,3.4767,3.4803,0,0,0,0,0,0,3.4012,3.4038,3.4076,3.414,3.4166,3.4298,3.4258,3.4266,3.4307,3.4304,3.437,3.4379,3.4398,3.4499,3.4518,3.4566,3.4491,3.4754,3.476,3.4766,3.4798,3.4808,3.4817,0,0,0,0,0,3.4003,3.408,3.4078,3.4099,3.4214,3.4301,3.4316,3.4337,3.431,3.435,3.4384,3.4377,3.4549,3.4508,3.4529,3.4581,3.4751,3.4758,3.4765,3.4793,3.4806,3.4817,0,0,0,0,0,0,3.4019,3.4088,3.4087,3.4186,3.4238,3.43,3.4349,3.4349,3.4409,3.4404,3.4428,3.4443,3.4537,3.4568,3.4522,3.4685,3.4647,3.4658,3.4661,3.4674,3.4683,3.4675,3.4497,0,0,0,0,0,3.4034,3.4098,3.4156,3.4238,3.4264,3.4303,3.4341,3.4353,3.4407,3.4429,3.447,3.4523,3.459,3.4633,3.4697,3.4802,3.4818,3.4849,3.4858,3.4866,3.4876,3.4938,3.4954,3.4792,3.4792,3.4792,0,0,3.4066,3.4112,3.4151,3.4243,3.4284,3.4352,3.4321,3.4392,3.4443,3.444,3.4532,3.4564,3.4625,3.4726,3.4772,3.4755,3.4925,3.4875,3.4881,3.4887,3.4947,3.4963,3.4976,3.4797,3.4796,3.4795,0,0,3.4159,3.4199,3.4274,3.4317,3.438,3.4406,3.4424,3.4487,3.4509,3.4601,3.4601,3.4662,3.4775,3.482,3.4858,3.4972,3.4969,3.4992,3.5044,3.5104,3.5117,3.5128,3.5172,3.5187,3.5002,3.5002,3.5002,0,3.4191,3.4292,3.4312,3.4386,3.4428,3.4429,3.4506,3.4547,3.4628,3.4657,3.4636,3.4781,3.4822,3.4935,3.4964,3.4993,3.5017,3.4985,3.5113,3.5125,3.5136,3.5178,3.5194,3.5004,3.5004,3.5004,3.5004,0,3.433,3.44,3.4453,3.4533,3.458,3.4655,3.4689,3.4734,3.4743,3.4771,3.4867,3.4917,3.4993,3.502,3.5028,3.5136,3.5124,3.5108,3.507,3.5153,3.5194,3.521,3.5008,3.5007,3.5006,3.5006,0,0,3.4435,3.4528,3.4547,3.4585,3.4657,3.4712,3.4788,3.4863,3.4903,3.496,3.5026,3.5123,3.511,3.5153,3.5167,3.5219,3.5311,3.5197,3.5199,3.5219,3.5437,3.545,3.5469,3.5309,3.5312,3.5315,3.5433,0,3.4538,3.4673,3.4696,3.4815,3.4882,3.4885,3.4952,3.5005,3.5034,3.5096,3.5128,3.5198,3.5174,3.52,3.5252,3.5289,3.5355,3.528,3.5373,3.5376,3.536,3.5489,3.5503,3.5612,3.5448,3.5451,3.5453,0,3.4676,3.4738,3.4864,3.493,3.4959,3.5019,3.5091,3.515,3.521,3.5228,3.5278,3.5286,3.5368,3.5326,3.544,3.5389,3.5428,3.5452,3.5457,3.5468,3.5421,3.5506,3.5647,3.5664,3.5477,3.5475,3.5474,0,3.4744,3.4859,3.4951,3.4982,3.5061,3.5103,3.5138,3.5196,3.5241,3.5304,3.5334,3.5405,3.5445,3.5501,3.553,3.5496,3.5644,3.5603,3.5663,3.5663,3.5695,3.5693,3.5847,3.5716,3.5716,3.5716,3.5715,0,3.4858,3.4936,3.4983,3.5039,3.5128,3.5153,3.5241,3.5274,3.5327,3.5391,3.5398,3.5458,3.5491,3.5557,3.558,3.5673,3.569,3.5709,3.5714,3.571,3.5708,3.5737,3.5732,3.572,3.5719,3.5718,3.5718,0,3.495,3.4984,3.5085,3.5152,3.517,3.5233,3.5291,3.5347,3.5377,3.5459,3.5479,3.5526,3.5605,3.5639,3.5735,3.575,3.5858,3.5857,3.5838,3.5841,3.59,3.5895,3.608,3.6107,3.5956,3.5957,3.5958,0,3.5022,3.5082,3.5156,3.52,3.5237,3.5307,3.5353,3.5382,3.543,3.5505,3.5553,3.5632,3.5697,3.5822,3.5866,3.5941,3.5943,3.6002,3.5954,3.5949,3.5948,3.5945,3.5953,3.6012,3.6013,3.6014,3.6015,0,3.5146,3.5161,3.5227,3.5301,3.5357,3.5416,3.5473,3.5509,3.5547,3.5601,3.5682,3.5733,3.5832,3.5912,3.5989,3.6027,3.6029,3.603,3.6049,3.6046,3.6034,3.6045,3.5866,3.6026,3.6025,3.6024,3.6024,3.6023,3.5233,3.5288,3.535,3.5425,3.5472,3.5526,3.5584,3.5621,3.5689,3.5773,3.5785,3.5873,3.5935,3.604,3.6081,3.6151,3.6136,3.6162,3.6169,3.6175,3.6181,3.6021,3.6164,3.6164,3.6164,3.6164,3.6164,0,3.5361,3.5401,3.547,3.5551,3.5611,3.5607,3.5672,3.5723,3.58,3.5857,3.5922,3.6017,3.6095,3.6145,3.6224,3.6271,3.6274,3.6291,3.6289,3.6299,3.6188,3.6165,3.6287,3.6287,3.6287,3.6287,3.6287,3.6287,3.5434,3.5529,3.5552,3.5671,3.5711,3.5797,3.5835,3.5887,3.5933,3.6039,3.6104,3.6136,3.6193,3.6276,3.6349,3.6362,3.6392,3.641,3.6423,3.6319,3.6306,3.6294,3.6273,3.6416,3.6416,3.6529,3.653,3.653]}]]